Burlington, WA
on Saturday, January 5, 2013

Saturday
Previous Day Next Day
Daily Summary
 ActualAverage (KBLI)Record (KBLI)
Temperature
Mean Temperature °F 38°F  
Max Temperature 44°F 44°F 61°F (2006)
Min Temperature 39°F 32°F 2°F (1982)
Degree Days
Heating Degree Days 24 27  
Month to date heating degree days 135  
Cooling Degree Days 0 0  
Month to date cooling degree days 0  
Year to date cooling degree days 0  
Moisture
Dew Point 42°F   
Average Humidity 97    
Maximum Humidity 100    
Minimum Humidity 87    
Precipitation
Precipitation 0.10 in 0.15 in 1.06 in (2006)
Month to date precipitation 0.71  
Year to date precipitation 0.71  
Wind
Wind Speed 7 mph   
Max Wind Speed 15 mph   
Max Gust Speed 23 mph   
Visibility 8 miles   
Events     

Key: T is trace of precipitation, MM is missing value
Source: NWS Daily Summary
Time(PST)TemperatureDew PointHumidity Pressure Visibility Wind DirectionWind SpeedGust SpeedPrecipitationEvents Conditions
12:15 AM 42.8°F 41.0°F 93% 30.18 in 10.0 miles ENE 5.8 mph - 0.00 in   Scattered Clouds
12:35 AM 42.8°F 41.0°F 93% 30.17 in 10.0 miles ENE 9.2 mph - 0.00 in   Partly Cloudy
12:55 AM 42.8°F 41.0°F 93% 30.18 in 9.0 miles Calm Calm - 0.00 in   Clear
1:15 AM 42.8°F 41.0°F 93% 30.17 in 10.0 miles ENE 11.5 mph - 0.00 in   Partly Cloudy
1:35 AM 42.8°F 41.0°F 93% 30.17 in 10.0 miles ENE 15.0 mph 23.0 mph 0.00 in   Scattered Clouds
2:15 AM 42.8°F 41.0°F 93% 30.17 in 10.0 miles ENE 12.7 mph - 0.00 in   Clear
2:35 AM 42.8°F 41.0°F 93% 30.18 in 10.0 miles ENE 6.9 mph - 0.00 in   Clear
2:55 AM 42.8°F 41.0°F 93% 30.18 in 10.0 miles NE 9.2 mph - 0.00 in   Clear
3:15 AM 42.8°F 41.0°F 93% 30.18 in 10.0 miles Calm Calm - 0.00 in   Clear
3:35 AM 42.8°F 39.2°F 87% 30.17 in 10.0 miles NE 8.1 mph - 0.00 in   Clear
4:15 AM 42.8°F 41.0°F 93% 30.18 in 10.0 miles ENE 4.6 mph - 0.00 in   Clear
4:35 AM 42.8°F 41.0°F 93% 30.18 in 9.0 miles Calm Calm - 0.00 in   Clear
4:55 AM 41.0°F 41.0°F 100% 30.18 in 9.0 miles Calm Calm - 0.00 in   Clear
5:15 AM 41.0°F 41.0°F 100% 30.18 in 9.0 miles Calm Calm - 0.00 in   Clear
5:35 AM 42.8°F 41.0°F 93% 30.18 in 10.0 miles ENE 5.8 mph - 0.00 in   Clear
6:15 AM 41.0°F 41.0°F 100% 30.18 in 10.0 miles Calm Calm - 0.00 in   Scattered Clouds
6:35 AM 41.0°F 41.0°F 100% 30.19 in 9.0 miles Calm Calm - 0.00 in   Mostly Cloudy
7:15 AM 39.2°F 39.2°F 100% 30.20 in 5.0 miles NNE 3.5 mph - 0.00 in   Overcast
7:35 AM 41.0°F 41.0°F 100% 30.19 in 8.0 miles NE 5.8 mph - 0.00 in   Mostly Cloudy
7:55 AM 41.0°F 41.0°F 100% 30.19 in 7.0 miles NE 5.8 mph - 0.00 in   Mostly Cloudy
8:15 AM 41.0°F 41.0°F 100% 30.19 in 6.0 miles NE 8.1 mph - 0.00 in   Overcast
8:55 AM 41.0°F 41.0°F 100% 30.20 in 3.0 miles ENE 9.2 mph - 0.02 in   Overcast
9:15 AM 41.0°F 41.0°F 100% 30.19 in 5.0 miles East 10.4 mph - 0.01 in   Overcast
9:35 AM 42.8°F 42.8°F 100% 30.19 in 5.0 miles NE 3.5 mph - 0.01 in   Overcast
9:55 AM 41.0°F 41.0°F 100% 30.20 in 6.0 miles ENE 3.5 mph - 0.02 in   Overcast
10:15 AM 42.8°F 42.8°F 100% 30.20 in 5.0 miles Calm Calm - 0.00 in   Overcast
10:35 AM 42.8°F 42.8°F 100% 30.20 in 5.0 miles East 4.6 mph - 0.01 in   Overcast
11:15 AM 42.8°F 42.8°F 100% 30.19 in 5.0 miles ESE 4.6 mph - 0.00 in   Overcast
11:35 AM 42.8°F 42.8°F 100% 30.17 in 8.0 miles East 10.4 mph - 0.01 in   Mostly Cloudy
12:15 PM 44.6°F 44.6°F 100% 30.16 in 8.0 miles East 6.9 mph - 0.00 in   Clear
12:35 PM 44.6°F 44.6°F 100% 30.15 in 8.0 miles East 6.9 mph - 0.00 in   Clear
12:55 PM 44.6°F 44.6°F 100% 30.15 in 8.0 miles ESE 3.5 mph - 0.00 in   Clear
1:15 PM 44.6°F 44.6°F 100% 30.15 in 8.0 miles East 3.5 mph - 0.00 in   Clear
1:35 PM 44.6°F 44.6°F 100% 30.14 in 8.0 miles East 8.1 mph - 0.00 in   Clear
1:55 PM 44.6°F 44.6°F 100% 30.13 in 8.0 miles ESE 8.1 mph - 0.00 in   Scattered Clouds
2:15 PM 44.6°F 44.6°F 100% 30.12 in 8.0 miles East 12.7 mph - 0.00 in   Scattered Clouds
2:35 PM 44.6°F 42.8°F 93% 30.13 in 8.0 miles East 12.7 mph - 0.00 in   Clear
3:35 PM 44.6°F 42.8°F 93% 30.12 in 9.0 miles East 10.4 mph - 0.00 in   Clear
3:55 PM 44.6°F 42.8°F 93% 30.11 in 8.0 miles East 9.2 mph - 0.00 in   Clear
4:15 PM 44.6°F 42.8°F 93% 30.11 in 8.0 miles East 8.1 mph - 0.00 in   Clear
4:35 PM 44.6°F 42.8°F 93% 30.10 in 8.0 miles East 10.4 mph - 0.00 in   Partly Cloudy
4:55 PM 42.8°F 42.8°F 100% 30.10 in 10.0 miles East 11.5 mph - 0.00 in   Partly Cloudy
5:15 PM 42.8°F 42.8°F 100% 30.09 in 10.0 miles East 11.5 mph 18.4 mph 0.00 in   Partly Cloudy
5:35 PM 42.8°F 41.0°F 93% 30.09 in 10.0 miles ESE 6.9 mph - 0.00 in   Clear
5:55 PM 44.6°F 42.8°F 93% 30.10 in 10.0 miles SSE 8.1 mph - 0.00 in   Scattered Clouds
6:15 PM 42.8°F 42.8°F 100% 30.09 in 10.0 miles SSE 5.8 mph - 0.00 in   Mostly Cloudy
6:55 PM 44.6°F 42.8°F 93% 30.10 in 10.0 miles SE 8.1 mph - 0.00 in   Overcast
7:15 PM 44.6°F 42.8°F 93% 30.10 in 10.0 miles South 9.2 mph - 0.00 in   Overcast
7:35 PM 44.6°F 42.8°F 93% 30.10 in 10.0 miles SSE 11.5 mph - 0.00 in   Overcast
7:55 PM 44.6°F 42.8°F 93% 30.11 in 9.0 miles SW 13.8 mph - 0.00 in   Overcast
8:15 PM 42.8°F 39.2°F 87% 30.12 in 9.0 miles South 10.4 mph - 0.00 in   Overcast
8:35 PM 42.8°F 39.2°F 87% 30.11 in 8.0 miles South 9.2 mph - 0.00 in   Overcast
9:15 PM 42.8°F 41.0°F 93% 30.12 in 6.0 miles South 5.8 mph - 0.01 in   Overcast
9:35 PM 41.0°F 41.0°F 100% 30.12 in 5.0 miles SSE 4.6 mph - 0.03 in   Overcast
9:55 PM 41.0°F 41.0°F 100% 30.12 in 5.0 miles SSE 5.8 mph - 0.03 in   Overcast
10:15 PM 41.0°F 41.0°F 100% 30.12 in 5.0 miles South 3.5 mph - 0.01 in   Overcast
10:35 PM 41.0°F 41.0°F 100% 30.13 in 7.0 miles Calm Calm - 0.01 in   Overcast
10:55 PM 41.0°F 41.0°F 100% 30.13 in 8.0 miles South 3.5 mph - 0.01 in   Overcast
11:15 PM 41.0°F 41.0°F 100% 30.14 in 9.0 miles South 4.6 mph - 0.00 in   Overcast
11:35 PM 41.0°F 41.0°F 100% 30.13 in 8.0 miles South 4.6 mph - 0.00 in   Overcast
11:55 PM 41.0°F 41.0°F 100% 30.14 in 8.0 miles SSE 5.8 mph - 0.00 in   Overcast
Moon Phase
Jan. 05 Jan. 11 Jan. 18 Jan. 26 Feb. 03
Sunrise:08:00 AM (PST) Moon Rise:12:56 AM (PST)1/5
Sunset:04:30 PM (PST) Moon Set:11:37 AM (PST)1/5

Copyright © 2014 The Weather Underground, Inc.